Theta_e
346 346 346 346 345 344 346 348 348 349 348 348 347 348 348 347 345 345 345 345 345 343 342 342 343 343 345 345 345 345 345 345 344 344 344 342 342 341 341 340 339 340 339 337 337 338 341 341 343 343 343 343 342 334 332 333 333 334 334 337 336 333
345 346 346 346 345 343 343 347 343 343 345 345 347 346 345 344 345 343 346 343 342 343 340 340 342 346 343 345 343 345 345 344 344 343 342 341 341 340 340 340 340 339 336 336 334 327 330 340 343 342 343 343 333 332 332 332 332 334 335 335 335 337
345 345 345 345 344 343 342 343 343 343 344 346 344 346 342 343 340 341 341 341 341 339 339 340 341 343 343 344 344 345 344 342 342 341 340 340 339 340 340 340 339 336 335 333 327 326 326 325 330 341 342 335 332 332 332 332 332 334 334 335 333 338
344 345 344 344 344 343 343 343 343 343 341 342 342 342 340 340 339 339 338 338 338 340 338 338 344 344 345 341 343 344 343 342 342 342 343 340 341 340 341 339 337 335 332 330 327 328 327 327 326 326 330 332 332 331 331 332 333 332 333 337 333 340
344 344 344 343 342 342 342 342 342 341 341 341 340 339 338 337 337 337 337 337 337 338 336 337 338 338 337 337 337 336 336 336 336 336 337 332 332 332 331 329 329 330 328 329 328 328 327 327 328 327 329 331 332 331 332 333 332 332 333 336 336 340
343 343 343 342 341 342 342 341 339 339 339 339 338 337 337 336 336 336 336 337 337 335 335 335 335 335 334 334 334 334 334 334 334 333 335 332 330 330 329 329 329 329 329 329 329 328 330 329 327 328 329 331 331 331 331 332 332 333 334 335 338 340
342 342 342 342 342 341 340 340 339 338 338 337 338 336 335 336 336 336 336 337 334 333 333 333 333 333 333 333 333 333 333 333 332 332 334 331 329 328 328 329 328 328 327 329 329 329 328 326 328 329 330 331 331 331 332 332 333 334 334 335 339 341
341 341 340 341 340 339 339 338 340 341 338 340 338 336 336 336 336 335 335 335 335 333 333 332 331 332 332 333 332 332 331 331 332 332 333 330 329 328 328 328 328 326 329 329 330 329 328 327 327 330 330 331 331 331 331 332 333 334 334 336 339 340
340 340 340 340 338 338 338 339 339 338 339 341 336 336 336 337 336 336 334 335 335 331 330 330 330 330 331 332 331 331 330 331 331 331 330 329 330 329 328 328 327 327 325 327 328 329 328 327 326 328 330 330 331 330 331 332 333 334 334 336 337 341
339 339 339 339 337 337 337 338 337 338 340 338 335 335 336 336 336 335 332 333 333 331 330 330 331 331 331 331 332 331 331 330 331 330 330 329 329 328 327 325 325 326 326 327 328 330 327 327 328 328 329 330 330 331 332 333 333 334 334 334 335 340
338 339 339 337 337 336 337 337 337 336 337 335 335 336 335 334 334 333 332 331 331 332 330 331 331 331 332 332 331 332 332 331 331 330 330 330 330 329 328 328 327 326 326 326 327 327 327 326 326 328 329 330 329 331 331 333 333 333 333 333 333 336
338 338 337 336 337 336 336 337 336 336 335 335 336 335 334 333 332 330 332 331 331 331 332 331 331 330 331 330 330 331 331 331 331 330 330 330 331 329 329 329 330 329 329 329 327 327 325 326 325 327 328 329 329 330 331 332 332 332 332 332 333 334
338 337 336 335 335 336 336 336 335 334 334 335 336 335 333 332 329 329 330 330 331 332 331 330 330 331 331 329 330 330 330 330 330 330 330 330 330 330 330 328 328 329 328 327 326 326 326 326 326 326 328 329 329 330 330 331 330 332 332 332 333 334
337 336 336 336 336 335 335 335 334 333 334 334 334 334 333 331 330 329 329 329 330 331 330 330 330 329 327 327 328 329 329 328 328 329 330 329 328 329 329 329 329 330 329 325 324 323 323 326 326 326 327 328 328 328 329 330 331 332 333 333 333 334
336 335 335 335 335 335 335 334 333 334 333 332 333 333 333 331 329 328 328 328 329 330 329 329 330 329 325 325 326 326 326 326 328 330 329 328 329 329 329 329 328 327 326 326 326 326 324 324 325 326 326 328 329 330 331 331 331 332 332 332 333 333
335 334 334 334 334 334 334 332 333 336 334 334 332 332 332 332 328 328 328 327 328 330 329 329 328 327 325 325 325 325 325 328 330 330 329 327 328 327 327 327 327 327 326 325 325 324 325 324 325 325 326 328 330 331 331 332 331 331 331 332 332 332
334 334 333 333 333 333 331 331 334 336 334 333 331 331 331 330 329 328 327 327 328 330 327 328 328 327 326 325 325 325 326 329 330 330 328 326 326 326 327 326 326 328 328 325 325 325 324 324 325 325 327 329 330 331 331 331 330 330 330 330 331 330
334 333 332 332 332 332 331 333 335 335 335 332 330 330 330 330 329 328 328 327 329 330 328 327 328 327 326 326 326 327 327 330 330 328 327 326 326 326 326 327 326 328 328 325 324 324 324 324 325 326 327 328 329 330 330 331 331 331 330 330 330 331
333 331 330 331 331 331 332 333 334 334 332 331 330 329 330 330 329 328 328 328 329 329 330 327 329 328 326 329 327 328 328 329 328 327 327 326 326 326 325 325 326 325 325 324 324 324 324 325 326 326 326 327 328 328 330 331 331 330 331 331 333 333
332 331 330 330 331 331 332 332 332 333 332 331 330 330 330 329 328 328 329 329 329 328 329 329 330 329 328 327 327 329 329 329 326 327 326 325 325 324 325 324 325 326 324 324 325 325 326 326 326 325 325 326 328 328 328 329 329 328 328 329 329 331
330 330 330 329 330 331 330 331 332 332 331 329 329 328 328 328 327 328 329 329 328 328 328 330 329 328 327 330 328 326 327 327 326 327 326 326 325 325 327 327 326 325 323 321 324 324 324 325 323 321 323 323 324 326 328 328 328 328 327 327 330 329
329 329 329 330 331 332 332 332 331 331 329 329 329 327 325 326 326 328 327 327 327 327 328 329 329 328 329 329 326 326 326 326 326 325 326 325 324 326 327 326 326 323 322 321 322 325 322 321 318 319 318 318 321 323 326 326 327 328 328 328 329 328
329 329 328 330 331 331 332 331 330 326 329 324 325 327 326 327 328 326 325 325 326 326 328 327 328 329 328 327 326 326 325 325 325 327 326 325 325 324 325 326 324 323 320 322 324 324 323 320 317 317 318 318 314 316 320 323 326 326 327 328 329 329
329 329 328 330 330 330 331 327 326 327 325 324 323 326 325 325 324 324 323 323 324 326 327 327 328 329 328 326 326 326 325 325 325 327 325 324 324 324 324 324 323 322 322 320 320 322 324 322 319 319 314 312 313 315 312 315 318 322 327 327 327 327
328 328 328 329 328 328 326 323 323 324 325 325 325 324 324 321 320 324 322 322 323 323 326 327 326 327 327 324 324 324 324 324 325 324 324 324 323 324 325 324 323 322 321 321 318 318 323 323 322 321 316 312 311 310 311 315 318 319 324 325 327 328
327 327 327 326 327 327 325 323 323 323 322 321 320 321 321 320 319 320 321 318 320 322 324 325 324 325 326 325 323 323 323 324 324 324 324 325 324 323 323 323 323 323 319 317 321 318 321 322 322 323 318 317 314 313 313 318 317 311 322 325 325 325
327 326 326 325 325 325 323 323 324 324 324 323 321 317 317 319 321 316 318 318 319 319 320 322 321 322 323 324 323 322 323 324 324 324 326 323 323 323 324 325 324 322 321 320 320 319 319 319 320 320 319 319 321 319 322 317 313 316 313 319 323 323
326 326 325 324 323 324 323 322 321 322 322 321 322 318 318 317 316 318 317 317 318 317 317 318 318 319 321 323 322 321 321 322 323 323 326 323 324 323 323 325 325 323 321 323 322 322 319 319 321 319 318 319 319 319 316 315 320 318 316 314 316 322
325 325 323 323 322 322 323 321 321 321 320 320 320 319 318 319 317 317 316 315 317 316 317 316 316 318 320 322 325 321 320 320 320 323 325 321 322 323 323 323 323 322 322 321 321 321 322 320 318 318 317 316 317 317 317 318 317 319 318 315 315 317
324 324 322 321 320 319 321 321 320 320 319 317 319 318 317 315 315 315 316 314 315 316 315 315 315 315 317 320 321 321 318 319 319 322 323 320 320 321 321 322 322 322 320 320 319 322 322 320 318 318 319 318 316 316 317 317 317 319 318 319 315 315
322 322 322 320 318 317 319 319 320 319 318 318 318 317 315 314 313 314 315 314 315 314 314 314 314 315 315 317 319 321 318 319 321 324 321 320 320 321 319 320 319 320 320 320 319 320 318 318 318 319 317 319 318 318 316 314 316 317 318 317 316 316
321 320 320 319 317 317 318 318 319 319 319 319 318 317 315 314 314 314 314 313 312 313 312 313 312 313 314 317 319 319 320 318 318 317 317 317 317 317 317 317 318 319 318 318 319 320 318 318 317 317 317 317 318 315 313 317 318 318 319 318 317 315
321 319 319 318 317 317 317 317 318 318 319 320 318 317 316 315 314 314 313 313 313 313 311 313 312 313 312 315 318 317 317 317 316 316 315 315 314 315 315 315 315 314 315 318 318 317 318 318 318 319 318 317 317 316 316 318 318 319 320 320 318 315
320 319 319 318 317 317 316 317 318 319 319 320 317 317 316 315 314 314 314 314 314 314 313 314 312 312 312 315 316 317 316 314 314 314 314 313 312 313 312 312 312 313 313 311 313 315 316 314 314 314 317 317 317 317 316 318 319 320 319 318 316 315
319 318 319 318 318 317 316 317 317 318 319 318 317 317 317 316 315 314 313 314 313 313 314 313 312 313 314 313 313 313 314 313 313 313 313 313 312 311 312 312 312 312 311 310 311 312 310 311 312 312 314 317 316 317 317 318 320 320 321 320 318 316
319 318 318 318 318 318 316 316 316 316 317 318 318 317 316 316 316 315 314 314 313 313 314 313 312 312 312 313 313 314 313 311 310 310 311 311 311 310 310 311 310 310 311 313 310 309 309 309 309 310 312 314 318 316 317 318 320 320 320 320 319 317
317 316 316 316 319 318 316 316 316 316 316 317 317 316 316 316 316 315 315 314 314 313 312 313 313 312 311 311 312 312 311 310 309 309 310 310 309 309 309 310 309 309 309 308 310 307 308 309 308 308 310 313 316 316 317 318 319 319 319 319 319 318
Wind_Speed
8 9 9 8 7 7 10 15 13 15 14 14 13 14 13 15 14 13 11 11 10 6 5 6 7 6 11 7 9 11 11 11 11 10 9 8 7 8 9 9 8 7 8 8 7 8 7 5 6 8 10 14 13 6 5 5 5 4 4 4 4 4
8 9 9 7 6 6 7 10 7 7 6 9 11 12 9 7 8 6 11 8 6 5 5 5 6 7 6 7 8 12 11 11 11 10 9 9 8 7 7 7 8 9 8 7 7 5 5 5 6 8 9 10 7 6 5 5 5 4 4 3 4 4
8 9 9 7 6 6 6 6 6 6 6 8 7 7 5 6 5 6 5 5 5 5 4 4 5 6 6 10 9 12 12 11 11 11 10 9 7 6 6 6 8 8 7 7 5 5 4 4 3 7 9 7 5 5 5 5 5 4 4 3 3 7
9 10 8 7 6 6 6 6 6 5 5 5 5 6 6 6 6 5 5 5 5 5 4 4 8 11 8 5 7 11 12 11 12 11 10 6 7 6 7 7 7 7 5 4 4 4 4 4 4 4 4 5 5 5 5 5 5 4 4 4 3 8
9 9 9 7 7 6 6 6 6 5 5 5 5 5 5 5 5 6 5 4 5 5 5 5 5 5 4 5 5 5 5 5 5 5 6 4 3 4 4 4 4 4 4 4 5 4 4 4 3 4 4 5 5 5 5 5 4 4 4 3 2 7
8 8 8 7 7 8 8 6 6 6 6 5 6 6 5 5 5 5 5 5 6 6 5 5 5 5 5 5 5 5 5 4 5 4 3 3 3 3 3 3 3 4 3 4 4 4 4 4 4 4 4 5 5 5 5 5 4 4 4 3 2 8
8 8 8 7 7 6 6 5 6 6 6 6 6 6 5 5 5 5 5 5 6 5 5 5 5 5 5 4 4 4 4 4 4 4 3 4 3 3 2 2 3 3 3 4 3 3 4 4 4 5 4 5 5 5 5 5 4 4 4 4 3 10
7 7 7 7 6 6 6 7 7 8 6 7 6 7 6 5 5 5 4 4 6 6 6 5 5 5 4 4 4 4 3 4 3 3 3 3 3 2 2 2 3 4 4 3 3 3 3 4 3 4 5 5 5 4 4 4 5 4 4 4 3 7
7 7 6 7 6 6 6 6 6 7 6 8 5 7 6 6 5 4 4 5 6 6 5 5 5 4 4 4 4 4 3 3 4 3 3 3 3 2 1 1 2 3 3 3 3 4 3 4 4 3 4 5 4 4 4 4 5 4 4 4 4 6
7 6 6 6 6 7 7 6 6 6 6 7 6 5 6 5 4 4 4 4 4 5 5 5 5 3 5 4 4 4 3 3 4 2 3 3 1 2 2 1 1 2 2 2 3 3 3 4 4 3 3 4 4 4 4 5 5 5 4 4 4 4
7 7 6 6 7 8 6 6 6 5 6 7 7 5 5 4 4 4 4 5 4 5 5 5 5 4 4 4 3 3 3 3 3 2 2 2 1 2 2 2 1 1 2 2 2 2 3 4 4 4 3 3 3 4 3 3 4 4 4 4 4 4
8 8 7 8 8 8 7 7 6 5 6 6 6 5 5 5 4 4 4 5 4 4 5 5 5 5 5 4 3 3 2 2 2 2 3 2 3 2 2 2 2 2 2 2 2 3 3 4 5 4 3 3 3 3 3 4 4 4 4 4 4 3
8 9 9 10 9 8 6 7 6 6 6 6 6 5 5 4 4 4 4 4 5 5 4 5 4 5 5 4 3 3 3 2 2 2 2 3 4 2 2 2 3 2 2 2 3 3 4 4 5 4 4 5 4 4 4 4 4 4 4 3 3 3
8 8 10 8 7 7 7 6 5 5 6 6 5 5 4 4 4 4 4 4 4 5 5 4 5 4 4 4 3 3 3 2 2 2 2 3 3 3 3 3 2 2 3 2 2 2 3 5 4 4 5 5 5 4 4 5 4 4 3 3 2 3
10 8 10 9 10 9 7 6 5 5 5 5 5 5 5 4 4 4 4 3 4 4 5 5 4 5 4 4 4 3 3 2 3 3 3 2 3 2 3 3 2 3 2 2 3 4 4 4 4 6 5 5 5 5 6 6 5 4 4 3 3 3
9 8 7 8 7 6 6 6 5 6 6 6 6 5 5 4 4 4 4 4 3 3 4 4 4 4 4 4 4 4 3 2 3 3 2 2 2 3 3 3 2 2 3 2 3 4 4 5 6 6 6 6 6 6 6 5 5 5 4 3 3 5
9 8 8 7 6 6 6 6 6 6 6 6 6 5 4 4 4 4 4 4 3 3 3 4 4 4 4 4 4 4 2 4 3 4 3 2 2 2 3 3 2 2 2 3 3 4 5 6 6 7 7 7 6 5 5 4 4 4 4 4 4 5
6 6 6 6 7 6 6 6 5 6 6 6 5 4 5 4 4 4 4 4 4 3 3 3 4 4 4 3 3 3 4 5 4 4 3 2 2 3 3 3 3 2 3 3 4 5 6 7 6 7 7 7 6 5 5 4 4 4 5 5 5 5
6 6 6 6 7 7 7 6 5 5 6 6 5 4 5 4 4 4 4 4 4 4 4 4 4 4 5 4 3 4 4 5 5 4 4 3 3 3 4 3 4 3 4 4 4 4 6 8 9 8 8 7 6 6 4 4 4 5 4 4 5 5
6 6 6 6 6 6 6 6 7 5 5 5 5 4 4 4 4 4 4 4 4 4 4 5 4 4 4 4 4 4 5 4 5 4 4 4 3 3 5 5 4 5 5 6 5 5 7 8 8 8 8 8 7 6 6 5 6 6 5 5 5 4
5 6 6 6 6 7 7 6 5 5 5 5 5 4 4 4 4 4 5 5 4 4 4 4 4 5 5 4 4 3 3 4 4 4 5 5 4 4 4 5 4 3 4 4 3 4 5 6 9 7 7 8 7 6 6 7 8 7 6 5 3 4
6 6 6 6 6 6 5 6 5 5 5 5 6 5 4 4 4 4 5 5 4 4 4 4 4 4 4 5 4 4 4 4 4 3 3 3 3 4 5 5 4 3 3 3 3 4 4 4 4 5 7 5 6 5 6 7 8 7 6 6 4 3
7 7 6 7 7 6 4 5 5 5 6 4 1 2 4 4 4 5 4 4 4 3 4 4 4 4 5 4 5 5 4 4 4 4 3 3 4 4 5 6 5 5 4 2 2 2 3 1 4 4 4 5 1 2 3 4 5 7 6 6 5 5
8 6 6 6 6 6 5 4 5 6 5 4 4 3 5 5 5 5 4 4 3 4 4 4 4 4 4 5 5 5 4 4 4 4 5 4 4 4 4 5 5 5 6 4 2 4 2 1 3 8 3 1 2 2 4 2 4 4 5 7 6 6
7 7 6 6 7 7 7 7 6 6 6 6 5 4 5 5 4 3 3 3 4 3 4 5 4 4 4 5 4 5 5 4 4 4 4 4 4 5 5 5 6 6 6 5 5 3 3 2 4 1 6 5 3 1 1 3 3 4 4 5 7 6
6 6 7 7 8 8 7 8 8 7 6 5 5 5 5 5 3 4 4 1 2 3 4 4 4 4 4 4 4 4 4 4 4 3 3 4 4 3 4 5 6 6 5 3 4 4 3 1 2 2 2 1 3 3 6 5 1 3 4 6 6 7
7 6 6 7 7 7 7 7 7 7 7 7 7 2 2 3 5 2 3 3 3 2 2 4 4 3 4 3 4 4 4 4 4 4 2 3 4 5 5 5 4 5 5 5 4 4 5 4 3 2 1 0 2 2 7 7 3 5 5 2 4 5
6 7 6 7 7 7 8 6 6 6 6 7 7 6 5 4 3 4 5 3 3 2 2 4 5 4 5 5 5 5 4 4 5 5 4 5 5 4 3 2 4 4 4 5 6 6 5 5 6 2 2 3 5 5 3 3 6 5 6 7 6 6
7 6 5 5 7 6 7 7 7 7 6 3 5 6 5 4 5 4 6 3 4 3 3 3 4 5 5 5 4 5 5 5 4 4 4 4 4 5 6 5 4 4 6 5 5 4 5 5 5 4 4 4 5 5 5 4 4 4 5 7 5 5
6 6 5 4 5 5 7 7 7 7 8 6 6 5 5 6 5 5 6 4 3 4 3 4 4 3 3 4 4 4 5 4 4 3 3 4 4 4 4 4 5 5 5 6 4 5 6 5 3 5 5 6 5 4 6 5 4 6 6 4 7 7
6 6 5 5 5 6 6 7 8 8 9 9 7 8 7 5 5 5 7 4 4 4 3 4 3 3 3 3 4 4 5 5 4 4 4 4 4 4 3 3 2 3 4 5 5 5 4 4 4 5 5 6 6 7 6 5 7 5 5 6 8 7
7 7 6 5 6 6 6 6 7 8 9 10 9 8 8 8 6 6 6 6 4 4 3 3 3 4 3 3 4 4 4 4 5 5 5 4 4 3 3 3 3 3 2 1 4 6 5 5 4 3 4 4 5 4 3 6 6 6 7 8 8 8
7 7 7 6 6 6 6 6 8 8 8 8 9 8 8 8 6 7 6 6 5 5 3 4 2 4 3 4 5 5 4 5 5 4 4 5 4 4 4 4 3 3 2 4 4 6 6 6 6 5 5 3 4 3 4 4 6 7 6 7 9 9
6 6 7 6 7 6 5 6 7 8 8 8 8 8 8 8 7 7 7 7 7 7 6 5 4 3 5 4 3 4 5 5 4 5 5 5 5 4 4 4 4 4 3 2 2 4 5 6 4 3 5 5 4 4 4 6 7 8 9 9 9 10
7 6 7 8 7 7 6 6 6 6 8 7 9 8 8 8 8 7 5 7 5 5 6 5 5 4 3 4 5 5 4 5 4 5 5 5 5 5 4 5 4 4 3 2 2 3 4 5 5 6 5 6 6 5 6 6 7 8 8 9 10 10
6 7 7 7 7 7 6 5 5 6 6 7 7 7 6 5 6 6 7 6 6 5 4 5 3 3 3 5 6 5 5 5 4 4 4 5 5 5 5 5 4 4 4 3 3 4 3 4 4 5 5 5 6 5 5 6 5 7 7 8 8 8
4 3 8 5 5 5 6 6 5 6 6 7 9 9 8 7 6 4 5 5 6 5 3 3 4 2 4 3 4 6 6 5 4 3 5 5 6 6 5 5 5 4 4 4 5 5 4 4 4 4 4 5 5 6 5 5 5 6 7 6 6 6
Wind_Direction
123 123 124 125 127 136 141 137 135 134 135 137 139 139 137 138 135 132 124 115 104 99 97 100 107 111 110 108 111 110 106 106 102 98 97 96 85 76 76 78 77 67 63 68 70 69 73 86 117 114 121 148 140 120 131 126 120 119 127 131 132 148
123 126 128 128 129 135 144 132 126 127 132 138 142 140 135 133 130 118 116 109 107 103 100 107 113 113 111 115 113 111 107 105 102 99 96 90 83 79 79 84 79 74 76 78 77 67 52 64 104 116 126 127 113 135 129 123 119 125 120 119 130 163
122 127 128 127 129 131 126 112 114 121 131 134 132 126 99 108 86 104 108 111 108 106 109 108 112 123 121 121 113 111 108 106 104 102 101 95 91 87 83 74 76 82 78 74 68 64 67 60 34 93 122 126 130 130 121 116 114 115 120 136 124 163
128 135 137 134 132 128 123 118 122 115 112 105 104 100 98 101 103 108 109 107 109 106 98 102 127 122 109 94 109 109 108 104 99 95 80 68 71 85 70 65 71 72 70 67 71 65 77 61 68 78 106 131 125 119 119 122 125 124 137 154 193 168
138 140 142 136 135 131 125 123 116 112 107 103 99 97 102 104 112 112 109 106 106 105 97 88 71 76 82 89 79 74 69 74 74 70 76 74 61 52 49 45 37 55 54 68 74 69 81 82 76 95 113 129 125 118 121 128 126 127 141 136 180 161
141 146 144 138 134 135 129 122 111 117 109 108 111 109 108 113 114 115 115 114 106 101 97 92 87 89 86 92 86 89 85 85 76 79 87 92 71 62 52 32 44 60 53 60 72 75 69 100 114 108 116 127 130 131 133 134 123 125 133 127 193 153
147 144 140 130 131 127 120 113 114 121 120 117 119 117 119 115 121 124 120 122 116 107 101 102 101 96 98 93 91 89 95 82 87 90 102 101 74 60 58 44 52 65 61 71 68 62 83 88 115 123 117 126 133 135 138 126 125 133 139 138 177 151
147 144 138 130 121 120 113 119 133 134 122 131 124 125 124 127 127 122 119 112 112 111 117 111 109 109 109 102 104 96 100 100 99 98 104 105 101 64 62 55 52 46 56 51 76 54 63 76 80 114 126 125 127 126 122 125 132 139 135 144 156 154
149 140 135 127 121 118 124 133 130 127 133 137 122 131 132 133 123 118 105 110 116 110 104 111 113 115 109 104 111 113 101 107 106 102 92 80 108 116 77 50 59 49 51 49 43 47 63 69 73 68 112 130 128 126 127 129 136 133 120 119 129 149
148 133 125 126 125 134 143 142 133 135 137 130 133 129 131 126 130 117 103 96 98 115 121 124 119 111 118 121 118 108 105 117 121 109 99 108 124 123 125 92 62 62 63 47 45 28 52 68 66 65 64 108 127 132 135 148 146 127 115 110 109 136
147 142 133 135 142 142 147 135 134 135 120 132 136 134 127 125 115 101 103 101 100 112 119 122 126 130 123 128 127 116 111 109 119 115 112 115 126 122 114 110 89 82 58 52 46 31 44 66 60 56 61 105 119 120 124 110 93 88 97 95 86 77
155 155 145 145 149 147 145 138 136 126 127 132 135 127 125 126 113 101 107 113 118 118 124 125 132 136 135 134 127 118 105 123 134 104 126 134 123 110 114 100 93 86 74 65 61 48 47 72 68 57 66 76 63 74 67 68 84 87 80 81 82 68
156 156 153 158 157 153 136 140 144 135 134 132 134 127 122 125 110 111 114 120 128 127 126 129 133 141 144 145 143 144 141 140 131 128 130 134 128 117 98 90 78 82 77 72 66 45 51 62 59 49 58 62 68 74 72 72 79 87 92 93 77 80
160 158 158 154 147 140 143 142 139 128 129 118 120 126 124 114 126 117 114 120 125 129 136 141 142 137 132 139 142 157 158 143 139 129 126 131 126 132 125 120 114 103 81 70 63 33 49 57 50 54 56 63 70 74 79 80 82 89 104 108 104 80
163 159 160 152 152 150 143 140 133 125 120 118 117 121 130 126 122 126 124 125 130 138 142 145 150 146 142 133 135 133 150 147 133 136 121 128 134 124 124 124 123 111 80 65 65 52 50 59 63 61 61 71 79 78 77 89 100 108 121 132 82 76
162 158 151 153 150 143 138 127 126 126 119 123 126 126 136 140 131 126 129 130 141 141 138 139 138 138 136 139 141 155 151 142 147 127 117 131 142 133 124 105 60 118 109 81 74 61 56 67 67 71 70 75 82 87 93 106 121 129 134 116 80 63
158 153 147 146 136 127 121 126 127 119 123 123 130 130 133 132 130 129 132 141 147 142 130 133 137 137 134 142 139 137 150 151 146 136 138 132 126 129 131 115 76 75 83 114 94 94 74 74 74 71 72 78 80 90 100 108 122 132 119 96 83 79
144 141 139 137 134 126 120 117 115 119 122 119 121 127 135 136 136 139 139 145 150 146 151 146 140 138 130 141 143 143 150 155 142 138 126 124 117 115 112 118 108 62 78 98 108 106 90 80 77 73 68 65 68 73 86 104 124 120 108 104 90 87
144 134 129 126 126 118 116 106 108 119 115 113 113 117 132 131 141 139 142 146 152 158 160 157 148 145 136 144 139 150 156 152 142 133 127 129 131 118 110 98 118 91 66 82 112 101 103 91 82 75 68 63 63 65 72 82 77 74 75 101 116 108
137 137 127 121 122 122 123 129 125 116 108 109 115 125 127 136 141 143 152 156 160 161 163 160 154 143 143 142 152 162 157 155 141 141 142 145 154 145 129 119 116 114 97 80 72 97 104 96 80 73 65 58 52 57 64 60 60 55 54 54 61 75
139 138 136 135 136 138 138 133 123 128 117 123 130 129 139 148 147 154 155 157 162 167 155 150 144 138 144 147 130 132 145 143 127 137 153 169 164 143 139 125 117 94 109 102 81 101 106 107 102 80 69 66 56 46 54 57 63 68 65 63 57 65
145 146 144 144 142 143 151 153 145 142 128 134 140 143 148 162 150 139 140 148 154 150 142 148 143 137 140 143 141 150 162 152 131 147 152 155 145 140 132 132 129 95 60 115 121 150 162 110 60 117 117 97 72 47 46 46 52 66 75 74 74 81
156 148 147 149 150 145 138 138 138 138 136 118 67 142 135 133 121 110 113 127 132 132 139 143 146 143 144 155 156 155 166 154 151 153 143 139 133 138 155 152 153 139 127 80 107 176 184 21 130 117 91 101 74 91 11 39 47 49 68 62 55 79
156 148 147 153 142 133 128 114 97 114 98 115 144 111 85 91 90 95 92 108 123 142 148 153 156 150 148 155 158 162 154 157 156 164 157 152 158 162 164 151 134 142 140 136 147 191 203 180 135 141 112 74 171 117 107 67 55 32 55 81 84 78
150 151 150 144 138 133 118 97 97 89 97 89 77 75 84 53 62 94 89 115 147 151 154 154 156 150 147 152 151 145 155 148 146 161 150 148 167 184 188 170 155 149 171 154 167 175 176 173 195 119 145 113 70 56 225 126 101 47 37 67 58 73
136 142 150 146 146 141 138 133 134 136 129 104 105 114 131 144 128 137 170 190 116 153 155 144 144 145 143 141 144 143 136 138 154 162 172 169 164 148 176 166 179 163 157 196 149 143 173 41 161 127 180 167 166 170 158 152 138 86 46 59 78 76
144 146 150 148 148 137 134 144 153 150 143 144 140 163 110 125 148 143 114 128 129 82 99 127 125 136 141 138 133 140 141 150 163 171 170 146 169 192 190 193 154 157 167 142 128 157 176 167 91 52 344 291 126 107 150 140 126 123 114 55 63 78
142 145 153 148 145 145 141 146 134 133 133 135 150 151 147 127 108 127 115 112 105 72 69 105 127 132 144 142 141 139 144 152 166 176 172 189 189 187 168 182 178 167 143 161 163 162 176 176 167 160 19 58 88 100 94 105 132 146 126 129 102 81
138 139 146 146 138 139 137 145 140 134 127 129 127 126 118 114 122 119 107 88 93 88 69 62 84 122 144 145 146 145 142 138 145 163 163 161 169 168 172 170 171 162 170 157 173 161 154 178 144 159 118 52 79 84 74 64 97 81 127 129 115 113
136 134 137 131 127 130 137 138 134 138 132 121 113 106 117 120 121 125 116 112 112 97 84 67 54 65 109 130 132 129 121 126 131 131 122 140 137 145 170 180 184 184 173 163 149 164 176 168 166 155 160 151 124 112 94 74 47 107 62 43 132 132
136 132 134 137 132 138 142 144 141 143 140 136 138 131 121 115 119 117 119 117 115 104 73 79 75 66 83 118 118 118 124 128 124 121 124 132 157 164 173 162 148 158 176 174 145 137 112 145 153 149 147 158 157 153 159 157 163 156 137 130 122 119
135 138 134 135 131 143 145 145 142 146 146 146 146 143 142 147 151 140 134 127 113 102 85 67 66 86 79 108 120 115 117 111 110 113 109 121 118 112 108 103 106 134 168 92 115 129 137 145 154 148 145 145 157 140 125 140 157 143 140 139 126 131
149 140 138 140 139 145 144 144 146 151 148 148 146 143 144 143 153 143 143 132 135 138 132 101 82 103 121 143 140 127 125 120 108 106 117 106 96 102 115 111 115 103 122 161 158 143 147 164 161 162 180 178 134 121 118 124 120 131 115 121 128 125
153 144 136 137 138 138 146 146 153 152 150 146 145 146 149 149 162 157 156 153 156 159 160 166 166 166 170 145 127 130 124 111 110 114 111 107 102 100 104 111 118 123 136 150 121 149 139 137 146 143 143 138 139 120 127 137 134 133 136 134 138 132
149 153 141 139 137 138 145 148 154 153 152 151 147 149 155 155 156 155 163 150 157 156 154 176 168 167 156 136 132 120 122 115 117 118 118 104 94 86 87 87 73 77 58 38 74 88 94 127 138 143 152 155 144 140 142 144 145 147 147 149 148 151
159 152 140 128 131 136 139 141 143 146 154 145 138 136 138 145 151 153 155 155 156 164 168 154 162 132 147 143 136 124 110 108 109 112 107 109 102 93 91 94 84 76 70 32 64 70 54 93 114 132 139 137 123 127 140 143 141 146 151 151 149 152
126 127 100 102 106 115 129 134 142 146 149 146 148 152 154 156 153 149 147 148 145 150 141 145 135 121 120 113 126 129 120 108 92 98 99 92 92 90 88 84 90 83 71 49 75 62 41 63 65 95 94 104 117 126 131 126 125 137 141 141 147 149